Flag for Switzerland Weather past 2 weeks in Montreux, Vaud, Switzerland

Now
67 °F

Mild.


Feels Like: 67 °F
Forecast: 52 / 70 °F
Wind: 5 mph from Northwest

Location: Aigle

Current Time: Jul 22, 2014 at 9:41:08 PM

Latest Report: Jul 22, 2014 at 6:00 PM


Visibility: N/A

Pressure: 29.96 "Hg

Humidity: 83%

Dew point: 62 °F

Location of MontreuxLocation

Historic Weather in Montreux — Graph

°F

Montreux temperature yesterday

Maximum temperature yesterday: 66 °F (at 3:00 PM)
Minimum temperature yesterday: 57 °F (at 5:00 AM)
Average temperature yesterday: 61 °F

Past Weeks' High & Low Weather Summary

 TemperatureHumidityPressure
High85 °F (Jul 18, 6:00 PM)100% (Jul 12, 2:00 AM)30.19 "Hg (Jul 12, 2:00 AM)
Low50 °F (Jul 10, 6:00 AM)42% (Jul 19, 4:00 PM)29.80 "Hg (Jul 20, 6:00 PM)
Average64 °F83%29.99 "Hg
* Reported Jul 7 6:00 PM — Jul 22 6:00 PM, Montreux, Weather by CustomWeather, © 2014

Note: Actual official high and low records may vary slightly from our data, if they occured in-between our weather recording intervals... More about our weather records

Advertising

Montreux weather history for previous 24 hours

 ConditionsComfort  
Time TempWeatherWind HumidityBarometerVisibility
6:00 PM
Jul 22
67 °FMild.5 mph83%29.96 "HgN/A
5:00 PM66 °FFog.5 mph87%29.97 "Hg5 mi
4:00 PM66 °FMild.8 mph89%29.97 "HgN/A
3:00 PM66 °FMild.8 mph86%29.97 "HgN/A
2:00 PM67 °FMild.9 mph80%29.96 "HgN/A
1:00 PM67 °FMild.8 mph83%29.96 "HgN/A
12:00 PM67 °FMild.7 mph90%29.96 "HgN/A
11:00 AM65 °FLight rain. Low clouds.5 mph89%29.97 "Hg2 mi
10:00 AM63 °FMild.2 mph93%29.97 "HgN/A
9:00 AM62 °FCool.2 mph98%29.97 "HgN/A
8:00 AM61 °FHeavy rain. Low clouds.1 mph98%29.97 "Hg2 mi
7:00 AM60 °FCool.No wind98%29.96 "HgN/A
6:00 AM60 °FCool.1 mph99%29.96 "HgN/A
5:00 AM60 °FRain. Overcast.No wind98%29.96 "Hg6 mi
4:00 AM60 °FCool.1 mph98%29.96 "HgN/A
3:00 AM60 °FCool.No wind99%29.98 "HgN/A
2:00 AM60 °FCool.1 mph99%29.98 "HgN/A
1:00 AM60 °FCool.1 mph99%29.99 "HgN/A
12:00 AM60 °FCool.2 mph98%30.00 "HgN/A
11:00 PM
Jul 21
60 °FCool.1 mph98%30.01 "HgN/A
10:00 PM61 °FCool.1 mph98%30.00 "HgN/A
9:00 PM62 °FCool.1 mph95%29.99 "HgN/A
Weather by CustomWeather, © 2014

See weather overviewHow to use our weather pages